Regional Weather Roundup
Issued by NWS Lake Charles, LA

Home | Current Version | Previous Version | Text Only | Print | Product List | Glossary On
Versions: 1 2 3 4 5 6 7 8 9 10 11 12 13 14 15 16 17 18 19 20 21 22 23 24 25 26 27 28 29 30 31 32 33 34 35 36 37 38 39 40 41 42 43 44 45 46 47 48 49 50
278
ASUS44 KLCH 090410
RWRLCH
REGIONAL WEATHER ROUNDUP
NATIONAL WEATHER SERVICE LAKE CHARLES LA
1000 PM CST MON FEB 08 2016

Note: "fair" indicates few or no clouds below 12,000 feet with no
significant weather and/or obstructions to visibility.


ACROSS SOUTHEAST TEXAS

CITY           SKY/WX    TMP DP  RH WIND       PRES   REMARKS
BEAUMONT       CLEAR     41  24  51 W6        30.25R
BEAUMONT CITY  FAIR      44  19  36 W8        30.26R
ORANGE         CLEAR     47  11  24 W3        30.26R
JASPER         CLEAR     44  14  30 W5        30.24S
$$

ACROSS CENTRAL LOUISIANA

CITY           SKY/WX    TMP DP  RH WIND       PRES   REMARKS
LEESVILLE      CLEAR     43  16  33 W6        30.17S
FULLERTON      FAIR      42  17  36 CALM      30.15S
ALEXANDRIA INT CLEAR     39  22  50 W7        30.15R
ESLER FIELD    CLEAR     40  20  44 W3        30.15S
DERIDDER         N/A     41  16  35 W5        30.21F
OAKDALE          N/A     42  18  38 CALM      30.18F
OPELOUSAS      FAIR      43  19  38 W6        30.17F
$$

ACROSS SOUTHWEST AND SOUTH CENTRAL LOUISIANA

CITY           SKY/WX    TMP DP  RH WIND       PRES   REMARKS
SULPHUR        PTCLDY    42  22  45 MISG      30.24R
LAKE CHARLES   PTCLDY    46  18  32 W6        30.22S
CHENNAULT INT  PTCLDY    46  17  30 W7        30.22R
CAMERON PHI    CLEAR     45  30  57 W7        30.27R
DEQUINCY       FAIR      42  17  36 CALM      30.22S
JENNINGS       FAIR      39  25  56 W7        30.20S
LAFAYETTE      PTCLDY    47  18  31 W7        30.19R
NEW IBERIA     CLEAR     43  21  41 W7        30.19S
ABBEVILLE      FAIR      42  24  48 W9        30.20S
PATTERSON      CLEAR     46  18  31 W7        30.20R
SALT POINT       N/A     50  31  48 NW8       30.18R
$$

SELECTED SITES ACROSS THE REGION

CITY           SKY/WX    TMP DP  RH WIND       PRES   REMARKS
HOUSTON BUSH   PTCLDY    49  14  24 W6        30.28R
HOUSTON HOBBY  CLEAR     54  10  17 NW8       30.29R
GALVESTON      CLEAR     52  24  33 NW9       30.30R
COLLEGE STAT   CLEAR     44  19  36 W6        30.30S
CONROE         CLEAR     38  25  59 N3        30.27S
HUNTSVILLE     CLEAR     47  13  25 NW6       30.26S
LUFKIN         CLEAR     43  14  31 W7        30.23S
SHREVEPORT     CLEAR     44  11  26 W9        30.17R
MONROE         CLEAR     41  18  39 W7        30.13R
NATCHEZ MS     CLEAR     45  14  29 W8        30.11S
BATON ROUGE    PTCLDY    43  17  35 W9        30.14S
N.O. INTL ARPT CLEAR     49  15  25 NW14      30.14R
SLIDELL        CLEAR     46  17  31 CALM      30.11R
$$

MARINE REPORTS

STATION/POSITION TIME  SKY/WX   TEMP    WIND        PRES    VSBY
                                AIR SEA DIR/SP/G
                 (UTC)          (F)     (DEG/KT/KT) (MB)    (MI)
BUOY 30 S HIGH I 0350            57 58  310/ 17/ 21 1025.0R
WVE H/P(F/S)=  3/ 4

SEA RIM ST PARK  0400            47     280/  7/  8 1025.3R
PORT ARTHUR      0300               56  320/ 10/ 18 1024.3R
SABINE PASS N    0300            46 56  300/  4/  8 1025.7R
TEXAS POINT      NOT AVBL
CALCASIEU PASS   0300            48 53  310/  7/  9 1022.9R
LK CHARLES BEACH 0300            50 54              1023.6R
MARSH ISLAND     NOT AVBL
FRESH WATER LOCK 0300            50 55  280/ 10/ 14 1022.7R
AMERADA PASS     0300            50 51  290/ 11/ 14 1021.8R
$$




USA.gov is the U.S. government's official web portal to all federal, state and local government web resources and services.